Location: Newark
(40.9833°N, 0.0333°W)
Time: 02:41:59
(UTC+00:00)

Transit 2A Rocket - Pass Details

Date: 02 November 2020
Orbit: 588 x 914 km, 66.7° (Epoch: 26 November)

Event Time Altitude Azimuth Distance (km) Brightness Sun altitude
Rises 10:39:46 0° 275° (W) 3,532 8.2 32.1°
Reaches altitude 10° 10:44:30 10° 307° (NW) 2,554 7.4 32.4°
Maximum altitude 10:46:20 11° 325° (NW) 2,435 7.2 32.5°
Drops below altitude 10° 10:48:09 10° 344° (NNW) 2,510 7.2 32.6°
Sets 10:52:41 0° 17° (NNE) 3,371 7.9 32.8°
